Location: Castillon
(43.0896°N, 0.2156°E)
Time: 13:48:58
(UTC+00:00)

Cosmos 1674 - Pass Details

Date: 16 June 2021
Orbit: 494 x 514 km, 82.5° (Epoch: 31 July)

Event Time Altitude Azimuth Distance (km) Brightness Sun altitude
Exits shadow 21:56:58 12° 220° (SW) 1,574 4.9 -17.8°
Maximum altitude 22:00:00 33° 283° (WNW) 860 4.2 -18.0°
Drops below altitude 10° 22:03:24 10° 349° (N) 1,703 6.4 -18.3°
Sets 22:05:41 0° 359° (N) 2,589 7.4 -18.5°
